This is the latest recevied weather packets stored in our database for station/object N1ORT. If no packets are shown the sender has not sent any weather packets the latest 10 day(s).
| Time | Temp. | Humidity | Pressure | Rain* | Wind** | Luminosity | Snow |
|---|---|---|---|---|---|---|---|
| 1777569045 | 9.44° C | 99% | 1005.6 hPa | 2.29 mm | - | 89 W/m² | - |
| 1777568742 | 9.44° C | 99% | 1005.5 hPa | 1.78 mm | - | 85 W/m² | - |
| 1777568440 | 9.44° C | 99% | 1005.3 hPa | 1.27 mm | - | 92 W/m² | - |
| 1777568137 | 9.44° C | 99% | 1005.2 hPa | 0.51 mm | - | 119 W/m² | - |
| 1777567833 | 9.44° C | 99% | 1005.2 hPa | 0.51 mm | - | 142 W/m² | - |
| 1777567529 | 9.44° C | 99% | 1005.1 hPa | 0.51 mm | - | 139 W/m² | - |
| 1777567227 | 9.44° C | 99% | 1005.2 hPa | 1.27 mm | - | 156 W/m² | - |
| 1777566925 | 9.44° C | 99% | 1005.1 hPa | 1.27 mm | - | 201 W/m² | - |
| 1777566623 | 8.89° C | 99% | 1005.1 hPa | 1.27 mm | - | 122 W/m² | - |
| 1777566320 | 9.44° C | 99% | 1005.2 hPa | 0.51 mm | - | 104 W/m² | - |
| 1777566018 | 8.89° C | 99% | 1005.2 hPa | 0.51 mm | - | 132 W/m² | - |
| 1777565713 | 8.89° C | 99% | 1005.1 hPa | 1.27 mm | - | 97 W/m² | - |
| 1777565410 | 9.44° C | 99% | 1004.9 hPa | 4.32 mm | - | 118 W/m² | - |
| 1777565106 | 8.89° C | 99% | 1005.3 hPa | 3.56 mm | - | 133 W/m² | - |
| 1777564802 | 8.89° C | 99% | 1005.4 hPa | 0.51 mm | - | 129 W/m² | - |
| 1777564496 | 8.89° C | 99% | 1005.1 hPa | 1.27 mm | - | 97 W/m² | - |
| 1777564192 | 8.89° C | 99% | 1005.3 hPa | 1.78 mm | - | 93 W/m² | - |
| 1777563889 | 8.89° C | 99% | 1005.4 hPa | 1.27 mm | - | 109 W/m² | - |
| 1777563585 | 8.89° C | 99% | 1005.6 hPa | 1.78 mm | - | 138 W/m² | - |
| 1777563279 | 8.89° C | 99% | 1005.6 hPa | 1.78 mm | - | 139 W/m² | - |
| 1777562976 | 8.89° C | 99% | 1005.6 hPa | 1.78 mm | - | 109 W/m² | - |
| 1777562672 | 8.89° C | 99% | 1005.4 hPa | 1.78 mm | - | 129 W/m² | - |
| 1777562372 | 8.89° C | 99% | 1005.7 hPa | 2.29 mm | - | 141 W/m² | - |
| 1777562067 | 8.33° C | 99% | 1005.6 hPa | 1.27 mm | - | 154 W/m² | - |
| 1777561765 | 8.89° C | 99% | 1005.8 hPa | 1.27 mm | - | 139 W/m² | - |
* Rain latest hour (hover to see other rain measurements)
** Current wind speed in m/s (hover to see current wind gust speed)